カタログに戻る

ELEKTRON 1 DEB

運用中UNKNOWN
NORAD 750·DEBRIS·🇷🇺 Russia

打ち上げ Jan 30, 1964 から Baikonur Cosmodrome

Loading…

次のパス (今後24時間)

TLE

最新Source: Space-Track

元期: Sep 14, 2026, 03:50 UTC

1 00750U 64006C   26257.15977706  .00014772  00000-0  13622-2 0  9999
2 00750  60.7426 123.4663 1373676 107.5850 267.9592 12.53866345857804

AllMySatでELEKTRON 1 DEBをリアルタイム追跡

Download on the App Store